Location: ??????
(38.5153°N, 23.0340°E)
Time: 13:44:38
(UTC+00:00)

BREEZE M DEB (TANK) - Pass Details

Date: 13 December 2025
Orbit: 288 x 13771 km, 49.5° (Epoch: 17 January)

Event Time Altitude Azimuth Distance (km) Brightness Sun altitude
Rises 15:39:13 0° 260° (W) 3,146 8.6 -6.4°
Reaches altitude 10° 15:42:36 10° 278° (W) 1,525 6.1 -7.0°
Maximum altitude 15:44:47 20° 330° (NNW) 835 3.8 -7.4°
Drops below altitude 10° 15:46:27 10° 24° (NNE) 1,139 4.0 -7.7°
Enters shadow 15:46:52 - 31° (NNE) 1,304 4.3 -7.7°
